DELTA 1 DEB

Satellite information

Favourite Embed

Satellite Type and Status

DEBRISIN ORBIT

Key statistics

Satellite DELTA 1 DEB at a glance.

Uptime

18229

Days in orbit

Revolutions

≈ 13.8

Per day

Orbit

SSO

Sun Synchronous Orbit

Inclination

99.7

Latest

Satellite identification and parameters

Extended collection of information and parameters for DELTA 1 DEB.

Object identification

Identified? True

Debris? True

Object name: DELTA 1 DEB

International designator: 1975-052KP

Object number (NORAD): 26835

Object ID (CCSDS): 26835

Country: UNITED STATES OF AMERICA (US)

Current information (Y/N): Y

RCS size: SMALL

Orbital parameters

Period: 104.419 minutes

Inclination: 99.7314 deg

SMA: 7345.353 km

Apoapsis: 997.765 km

Periapsis: 936.671 km

RAAN: 324.6271 deg

Eccentricy: 0.0041587

Argument of periapsis: 118.8186 deg

Mean anomaly: 297.2345 deg

Mean motion: 13.7906188 rev/day

Mean motion (dot): 0.00001868 rev/day2

B* drag term: 0.0018609 1/REarth

Two-line elements (TLE)

Creation date: May 8, 2025, 10:36 p.m.

Reference frame: TEME

Reference center: EARTH

Epoch: May 8, 2025, 12:23 p.m. UTC

TLE line 0: 0 DELTA 1 DEB

TLE line 1: 1 26835U 75052KP 25128.51654986 .00001868 00000-0 18609-2 0 9994

TLE line 2: 2 26835 99.7314 324.6271 0041587 118.8186 297.2345 13.79061880664856

Live tracking on map

Real-time ground track for satellite DELTA 1 DEB.

In-orbit conjunctions

A list of the most updated potential collisions computed for object DELTA 1 DEB.

Target Orbit TCA Probability of collision Miss distance Type
SL-8 R/B LEO 2025-02-15 03:03:15 0.0003197937 471.0 (m) ROCKET BODY
FENGYUN 1C DEB SSO 2025-02-09 08:06:04 0.0001062029 181.0 (m) DEBRIS

Associated space launch

Experimental meteorological satellite

DELTA 1 DEB was lifted into orbit during the mission ‘Delta 2910 | Nimbus 6’, on board a Delta 2910 space rocket.

The launch took place on June 12, 1975, 8:12 a.m. from Space Launch Complex 2W.

For more information about the launch, click the button.

Launch to space Delta 2910 | Nimbus 6
Delta 2910 | Nimbus 6

Agency: N/A

Status: Launch Successful

Launch date: June 12, 1975, 8:12 a.m. UTC

Rocket: Delta 2910

Launch pad: Space Launch Complex 2W

Location: Vandenberg SFB, CA, USA

...

Latest news about this satellite

There are no fresh news available about this satellite. Check back as we update our databases every day.


Newsletter sign-up

Weekly statistics, charts and insights to help you stay on top of the space industry.